Bundaberg Observation History
Time Wind Speed Temp Pressure Rel. Hum Rain
03/01:30pm N 8-12 kts 29.7°c 1010.3 hPa 54% 0.0mm
03/01:00pm NE 9-14 kts 29.3°c 1010.3 hPa 50% 0.0mm
03/12:30pm NE 10-13 kts 29.2°c 1010.8 hPa 51% 0.0mm
03/12:00pm NE 8-14 kts 28.3°c 1011.1 hPa 56% 0.0mm
03/11:30am NNE 8-11 kts 27.8°c 1011.8 hPa 58% 0.0mm
03/11:00am ENE 4-7 kts 28.2°c 1012.1 hPa 55% 0.0mm
03/10:30am ENE 7-10 kts 28.7°c 1012.5 hPa 56% 0.0mm
03/10:00am NNE 6-8 kts 27.2°c 1013.1 hPa 62% 0.0mm
03/09:30am E 3-5 kts 26.7°c 1013.3 hPa 66% 0.0mm
03/09:11am ESE 3-5 kts 26.3°c 1013.3 hPa 70% 0.0mm
03/09:00am SSW 2-7 kts 25.8°c 1013.3 hPa 70% 0.0mm
03/08:59am SW 2-7 kts 25.7°c 1013.3 hPa 70% 0.0mm
03/08:30am S 4-6 kts 24.6°c 1013.4 hPa 80% 0.0mm
03/08:00am S 5-7 kts 23.0°c 1013.6 hPa 84% 0.0mm
03/07:30am SSE 5-7 kts 21.8°c 1012.9 hPa 89% 0.0mm
03/07:00am SSE 6-8 kts 20.4°c 1012.6 hPa 95% 0.0mm
03/06:30am S 5-7 kts 19.6°c 1012.5 hPa 98% 0.0mm
03/06:00am S 6-7 kts 19.2°c 1012.2 hPa 96% 0.0mm
03/05:30am SSE 5-7 kts 19.5°c 1011.9 hPa 96% 0.0mm
03/05:00am S 6-7 kts 19.7°c 1011.8 hPa 96% 0.0mm
03/04:30am S 6-7 kts 19.6°c 1011.7 hPa 96% 0.0mm
03/04:00am S 5-6 kts 19.6°c 1011.6 hPa 95% 0.0mm
03/03:30am S 7-8 kts 19.9°c 1011.5 hPa 95% 0.0mm
03/03:00am S 7-8 kts 20.2°c 1011.6 hPa 95% 0.0mm
03/02:30am S 6-7 kts 20.1°c 1011.9 hPa 94% 0.0mm
03/02:00am S 5-6 kts 20.2°c 1012.0 hPa 93% 0.0mm
03/01:30am S 5-6 kts 20.5°c 1012.3 hPa 93% 0.0mm
03/01:00am S 5-6 kts 20.5°c 1012.6 hPa 92% 0.0mm
03/12:30am S 5-7 kts 20.8°c 1013.1 hPa 91% 0.0mm
03/12:00am S 5-6 kts 21.1°c 1013.3 hPa 89% 0.0mm
Time Wind Speed Temp Pressure Rel. Hum Rain
02/11:30pm S 3-4 kts 21.5°c 1013.4 hPa 88% 0.0mm
02/11:00pm CALM 0-2 kts 21.8°c 1013.5 hPa 87% 0.0mm
02/10:30pm S 3-4 kts 21.9°c 1013.7 hPa 86% 0.0mm
02/10:00pm SSE 4 kts 22.3°c 1013.9 hPa 83% 0.0mm
02/09:30pm S 4-5 kts 22.8°c 1014.1 hPa 81% 0.0mm
02/09:00pm S 5 kts 22.9°c 1013.9 hPa 81% 0.0mm
02/08:30pm CALM 0 kts 23.5°c 1014.2 hPa 77% 0.0mm
02/08:00pm ESE 4-6 kts 23.5°c 1014.1 hPa 79% 0.0mm
02/07:30pm ESE 7-9 kts 23.4°c 1013.9 hPa 82% 0.0mm
02/07:00pm E 10-13 kts 23.9°c 1013.7 hPa 79% 0.0mm
02/06:30pm E 5-7 kts 24.9°c 1013.3 hPa 73% 0.0mm
02/06:00pm ENE 7-11 kts 25.2°c 1013.3 hPa 70% 0.0mm
02/05:30pm NE 8-10 kts 25.7°c 1013.2 hPa 66% 0.0mm
02/05:00pm ENE 9-13 kts 26.3°c 1012.8 hPa 61% 0.0mm
02/04:30pm ENE 9-12 kts 26.9°c 1012.6 hPa 60% 0.0mm
02/04:00pm NE 9-13 kts 27.7°c 1012.4 hPa 59% 0.0mm
02/03:30pm NE 11-14 kts 27.5°c 1012.5 hPa 59% 0.0mm
02/03:00pm ENE 12-17 kts 28.1°c 1012.4 hPa 56% 0.0mm
02/02:30pm ENE 12-17 kts 28.2°c 1012.4 hPa 54% 0.0mm
02/02:00pm ENE 10-15 kts 29.2°c 1012.4 hPa 51% 0.0mm
02/01:30pm E 9-14 kts 29.1°c 1013.0 hPa 49% 0.0mm
02/01:00pm ENE 8-12 kts 28.9°c 1013.5 hPa 48% 0.0mm
02/12:30pm ESE 8-11 kts 28.7°c 1013.8 hPa 47% 0.0mm
02/12:00pm E 7-13 kts 28.9°c 1014.1 hPa 49% 0.0mm
02/11:30am ENE 10-15 kts 28.3°c 1014.6 hPa 51% 0.0mm
02/11:00am ESE 8-15 kts 28.6°c 1014.8 hPa 53% 0.0mm
02/10:30am SE 6-9 kts 28.1°c 1015.2 hPa 57% 0.0mm
02/10:00am ESE 6-8 kts 27.0°c 1015.5 hPa 60% 0.0mm
02/09:30am ESE 8-12 kts 27.3°c 1015.5 hPa 62% 0.0mm
02/09:00am SSE 7-10 kts 26.2°c 1015.6 hPa 69% 0.0mm
02/08:30am SSE 7-10 kts 25.0°c 1015.5 hPa 76% 0.0mm
02/08:00am SSE 7-11 kts 23.8°c 1015.6 hPa 78% 0.0mm
02/07:30am S 7-11 kts 22.4°c 1015.4 hPa 86% 0.0mm
02/07:00am S 5-7 kts 21.1°c 1015.1 hPa 94% 0.0mm
02/06:30am S 5-6 kts 20.1°c 1014.8 hPa 96% 0.0mm
02/06:00am S 5-8 kts 20.0°c 1014.5 hPa 96% 0.0mm
02/05:30am S 7-8 kts 20.1°c 1014.5 hPa 96% 0.0mm
02/05:00am S 6-8 kts 20.0°c 1014.3 hPa 95% 0.0mm
02/04:30am S 5-7 kts 20.2°c 1014.2 hPa 95% 0.0mm
02/04:00am S 6-7 kts 20.1°c 1014.3 hPa 95% 0.0mm
02/03:30am S 5-7 kts 20.1°c 1014.0 hPa 95% 0.0mm
02/03:00am S 6-7 kts 20.1°c 1014.2 hPa 94% 0.0mm
02/02:30am S 5-7 kts 20.2°c 1014.3 hPa 93% 0.0mm
02/02:00am S 6-7 kts 20.4°c 1014.7 hPa 92% 0.0mm
02/01:30am SSW 5-7 kts 20.5°c 1015.2 hPa 91% 0.0mm
02/01:00am SSW 6-7 kts 20.6°c 1015.5 hPa 91% 0.0mm
02/12:30am SSW 5-7 kts 20.8°c 1015.8 hPa 89% 0.0mm
02/12:00am SSW 5-6 kts 20.9°c 1016.0 hPa 88% 0.0mm
Time Wind Speed Temp Pressure Rel. Hum Rain
01/11:30pm SSW 5-7 kts 21.4°c 1016.1 hPa 88% 0.0mm
01/11:00pm S 5-6 kts 21.6°c 1016.3 hPa 86% 0.0mm
01/10:30pm S 5-6 kts 22.0°c 1016.5 hPa 85% 0.0mm
01/10:00pm SSE 3-5 kts 22.3°c 1016.3 hPa 84% 0.0mm
01/09:30pm SSE 3-5 kts 22.9°c 1016.5 hPa 81% 0.0mm
01/09:00pm SE 3-4 kts 23.3°c 1016.3 hPa 79% 0.0mm
01/08:30pm SSE 4-5 kts 23.8°c 1016.1 hPa 78% 0.0mm
01/08:00pm SSE 3-4 kts 23.7°c 1015.9 hPa 77% 0.0mm
01/07:30pm E 4-5 kts 24.1°c 1015.6 hPa 75% 0.0mm
01/07:00pm E 5-6 kts 24.6°c 1015.4 hPa 73% 0.0mm
01/06:30pm ENE 6-7 kts 25.0°c 1015.2 hPa 70% 0.0mm
01/06:00pm ENE 7-9 kts 25.6°c 1015.0 hPa 66% 0.0mm
01/05:30pm ENE 8-10 kts 26.1°c 1014.7 hPa 63% 0.0mm
01/05:00pm ENE 9-13 kts 26.8°c 1014.6 hPa 59% 0.0mm
01/04:30pm E 8-13 kts 28.1°c 1014.3 hPa 55% 0.0mm
01/04:00pm E 11-14 kts 27.9°c 1013.9 hPa 55% 0.0mm
01/03:30pm E 10-16 kts 28.6°c 1013.9 hPa 48% 0.0mm
01/03:00pm E 11-16 kts 29.6°c 1013.8 hPa 50% 0.0mm
01/02:30pm ENE 10-15 kts 29.2°c 1014.1 hPa 50% 0.0mm
01/02:00pm E 8-13 kts 29.8°c 1014.2 hPa 48% 0.0mm
01/01:30pm E 9-12 kts 29.7°c 1014.5 hPa 45% 0.0mm
01/01:00pm E 9-15 kts 29.4°c 1014.9 hPa 47% 0.0mm
01/12:30pm ENE 9-14 kts 29.1°c 1015.3 hPa 48% 0.0mm
01/12:00pm ESE 10-15 kts 28.7°c 1015.6 hPa 48% 0.0mm
01/11:30am ESE 10-14 kts 28.8°c 1015.9 hPa 49% 0.0mm
01/11:00am ESE 10-13 kts 28.6°c 1016.3 hPa 52% 0.0mm
01/10:30am E 9-13 kts 27.9°c 1016.6 hPa 55% 0.0mm
01/10:00am ESE 7-11 kts 27.6°c 1016.7 hPa 55% 0.0mm
01/09:30am ESE 7-10 kts 27.0°c 1016.8 hPa 60% 0.0mm
01/09:00am ESE 7-9 kts 25.9°c 1016.9 hPa 66% 0.0mm
01/08:30am SSE 6-9 kts 25.2°c 1016.9 hPa 72% 0.0mm
01/08:00am SE 6-8 kts 24.0°c 1016.9 hPa 78% 0.0mm
01/07:30am SSE 6-8 kts 22.2°c 1016.6 hPa 86% 0.0mm
01/07:00am SSE 6-8 kts 20.8°c 1016.3 hPa 92% 0.0mm
01/06:30am S 6-7 kts 20.0°c 1016.2 hPa 96% 0.0mm
01/06:00am SSW 7-8 kts 19.8°c 1015.9 hPa 96% 0.0mm
01/05:30am S 5-7 kts 19.8°c 1015.4 hPa 96% 0.0mm
01/05:00am S 5-7 kts 20.0°c 1015.3 hPa 95% 0.0mm
01/04:30am SSE 5-7 kts 20.3°c 1015.0 hPa 95% 0.0mm
01/04:00am SSE 4-5 kts 20.5°c 1014.7 hPa 95% 0.0mm
01/03:30am SSE 5-6 kts 20.7°c 1014.8 hPa 95% 0.0mm
01/03:00am S 6-8 kts 20.9°c 1014.9 hPa 95% 0.0mm
01/02:30am S 7-9 kts 20.7°c 1015.0 hPa 95% 0.0mm
01/02:00am S 5-7 kts 20.8°c 1014.9 hPa 93% 0.0mm
01/01:30am S 5-6 kts 20.9°c 1014.9 hPa 92% 0.0mm
01/01:00am S 6-7 kts 21.3°c 1015.1 hPa 92% 0.0mm
01/12:30am S 3-4 kts 21.4°c 1015.2 hPa 89% 0.0mm
01/12:00am SSE 3-4 kts 21.5°c 1015.3 hPa 88% 0.0mm